Theta_e
300 300 300 301 301 301 302 302 302 301 302 292 289 293 292 294 292 302 306 311 310 302 294 297 294 293 295 298 297 297 295 292 292 293 293 293 295 291 292 292 291 291 294 291 290 291 287 288 289 287 287 291 296 294 292 293 293 295 286 290 285 292 283 281 284 288 289 291 290 288 287 288 286 287 287 286 285 286 285 284 285 281 283 282 282 279 282
300 300 299 299 300 300 300 301 302 302 302 292 291 290 289 292 291 294 302 310 306 298 288 289 292 294 296 297 296 298 295 294 293 293 293 293 290 293 291 291 293 292 293 291 290 291 286 290 291 289 289 287 293 292 292 293 291 292 287 289 292 285 285 284 281 281 282 284 286 285 284 285 285 286 289 288 288 287 287 286 284 281 282 283 280 275 282
300 300 300 299 299 299 299 299 300 301 302 299 291 286 289 288 290 292 294 301 303 293 297 294 292 292 293 294 293 295 296 295 297 296 293 295 293 291 290 294 290 287 291 289 290 288 290 287 289 289 287 289 288 289 290 292 290 291 291 294 291 286 286 283 279 276 275 275 276 278 279 282 282 283 286 287 286 286 284 280 282 278 282 284 280 280 286
299 299 299 299 299 299 299 298 298 299 300 301 288 286 286 283 277 283 292 297 295 295 297 294 293 290 290 290 292 294 292 295 294 296 296 298 295 294 290 288 289 288 289 287 288 289 289 289 286 287 284 285 285 286 287 288 287 290 291 288 289 284 283 286 285 283 280 282 285 287 287 283 282 282 282 284 285 287 286 285 282 280 283 282 283 284 285
300 299 299 299 299 300 299 299 298 299 300 300 287 284 285 286 282 282 275 290 292 290 294 292 294 289 294 287 291 290 291 291 292 296 289 292 294 291 293 290 290 287 288 287 288 288 287 288 286 286 287 286 284 286 286 286 288 290 287 288 282 283 283 286 286 285 286 287 287 288 288 285 286 285 286 287 285 284 284 282 281 286 282 278 285 287 284
300 300 301 300 300 300 299 299 299 299 301 302 288 281 284 277 280 287 289 285 283 286 285 289 288 290 291 288 292 288 288 289 287 289 291 290 290 289 288 291 292 291 290 289 285 287 286 285 284 283 282 283 285 284 286 284 287 286 283 287 285 282 281 285 286 284 286 285 285 286 285 285 285 286 285 285 286 286 284 284 285 285 281 279 285 286 284
301 301 300 300 300 300 300 299 299 299 300 298 283 279 280 281 282 283 287 282 285 285 286 286 286 286 288 286 289 287 288 287 290 289 287 289 287 292 284 288 287 287 288 287 284 286 283 281 281 281 281 280 282 280 283 285 284 283 282 284 286 284 280 284 284 281 281 283 284 285 284 283 284 284 285 286 286 285 285 285 286 286 284 285 285 286 285
300 300 300 300 300 300 300 299 299 300 300 293 285 282 279 279 281 279 286 285 283 283 283 283 284 282 286 284 286 287 287 286 288 288 288 285 287 290 288 283 283 283 284 285 284 285 284 284 282 283 279 278 283 279 283 282 283 283 281 283 284 285 279 284 280 278 278 281 282 283 283 282 281 282 284 284 284 284 284 284 284 285 283 285 285 285 285
300 299 300 300 300 300 300 300 299 299 299 289 286 282 284 284 287 289 282 279 280 281 279 280 281 281 284 283 285 287 286 286 284 284 289 287 286 284 281 282 282 283 283 282 282 284 282 282 282 282 282 277 282 279 279 284 278 281 280 284 283 283 277 282 279 275 274 278 278 279 280 280 279 279 280 280 279 278 280 279 282 281 279 282 282 281 282
299 300 299 299 299 299 300 300 300 299 300 291 288 281 284 283 281 286 284 276 282 278 281 278 279 275 280 283 284 283 282 280 283 283 287 283 284 282 282 282 282 281 283 281 284 283 282 283 284 285 284 285 283 283 282 283 280 278 278 282 279 280 278 276 276 273 272 277 278 277 277 275 272 273 277 278 279 280 281 282 280 278 280 279 279 277 276
301 302 300 299 300 299 300 300 299 300 297 288 285 282 282 282 281 281 284 276 278 278 279 277 277 278 276 277 275 279 280 281 281 280 281 284 283 284 283 282 280 279 280 283 285 284 285 286 285 285 285 284 283 282 282 282 282 281 278 275 275 278 277 275 278 271 271 275 274 272 269 264 266 276 279 280 278 279 278 277 276 278 279 276 278 276 278
301 301 301 301 301 300 299 299 299 300 298 292 291 285 285 284 283 280 278 275 276 279 277 273 276 277 276 277 277 276 277 277 278 283 278 280 282 283 283 282 283 276 286 285 286 285 286 287 285 284 284 282 282 281 281 280 280 283 282 278 275 275 274 272 271 269 268 269 266 267 262 264 272 275 278 278 277 276 275 275 276 277 279 278 277 278 276
301 301 301 301 301 301 301 300 300 299 300 293 291 287 286 286 286 283 281 277 272 276 275 277 278 277 277 276 276 276 277 277 278 279 280 279 279 281 282 282 281 282 286 284 285 283 279 276 278 277 277 276 275 277 278 278 279 280 280 281 277 273 272 268 267 267 267 267 265 262 261 274 276 278 277 278 277 276 274 271 273 273 276 279 275 278 277
301 301 301 300 300 300 300 300 300 300 300 297 292 290 288 289 287 285 283 278 277 279 279 278 279 278 278 277 276 277 277 277 277 277 275 278 277 277 278 281 281 285 282 282 280 278 271 269 259 263 267 261 260 265 269 274 276 277 278 279 281 278 274 272 269 276 266 267 266 267 273 274 275 273 275 274 272 273 271 266 274 271 271 276 276 278 278
300 300 301 300 301 300 300 300 300 300 300 299 293 291 290 291 290 285 285 282 276 278 280 273 277 276 278 276 277 275 275 275 275 275 276 277 276 278 280 281 281 280 281 278 273 272 267 261 257 262 258 260 259 259 266 263 270 274 276 277 279 280 275 276 273 269 276 269 269 269 268 264 267 272 272 276 276 277 277 276 270 274 271 275 277 276 276
300 300 300 300 300 301 300 301 300 300 300 300 295 291 290 291 290 289 286 282 279 273 278 281 280 276 275 276 277 276 274 275 274 272 272 273 274 277 278 278 277 280 280 276 275 267 261 262 260 257 258 256 259 261 257 263 264 266 272 274 277 279 280 278 275 272 275 272 269 267 266 268 275 273 276 276 276 278 276 271 265 275 271 273 278 276 277
300 300 300 300 300 300 300 300 300 299 300 299 293 291 289 292 290 288 286 283 281 276 282 280 280 280 277 276 279 277 278 275 276 271 267 270 275 275 273 275 276 279 278 275 270 268 264 258 255 255 258 260 261 261 260 258 257 261 267 267 263 267 269 274 273 272 272 271 268 265 267 263 269 268 270 272 273 276 275 266 268 273 271 274 277 277 277
300 300 300 300 300 300 301 301 301 301 300 301 296 291 290 292 292 288 285 283 281 280 284 282 279 277 277 279 277 279 276 274 273 273 272 271 269 272 272 272 273 276 279 271 271 268 267 263 264 266 263 268 262 264 259 263 256 259 261 266 264 263 263 266 267 269 270 272 268 270 268 274 271 270 272 273 275 273 264 263 268 272 271 273 276 277 278
300 300 300 299 299 299 299 299 300 300 300 299 296 292 291 292 292 291 287 285 282 278 285 286 286 281 281 282 279 279 278 279 277 273 262 268 269 273 273 270 276 269 272 269 268 267 270 269 267 264 265 265 267 261 265 262 263 264 266 265 264 263 262 261 262 262 265 264 265 265 267 270 274 270 274 275 272 261 265 269 274 274 275 274 276 277 278
300 299 299 299 299 300 300 300 300 300 300 300 297 290 292 293 293 291 286 282 284 282 284 284 284 281 283 280 278 277 277 277 278 274 266 268 269 273 273 270 273 263 264 269 269 266 261 264 266 264 262 264 265 269 263 266 269 265 265 266 265 263 262 257 262 261 262 264 264 264 262 269 271 273 273 274 266 266 272 273 274 274 273 274 274 275 276
299 299 299 299 299 299 299 299 299 299 299 299 297 291 289 292 291 290 291 288 284 280 282 288 285 285 284 283 283 283 281 278 278 276 277 276 276 272 266 265 267 262 264 269 265 267 263 259 261 262 264 266 267 265 262 261 262 270 271 270 269 269 265 260 264 267 265 263 262 261 264 271 274 270 266 268 273 275 275 274 275 277 275 273 274 274 275
299 299 299 299 298 298 299 299 299 299 300 300 298 292 288 292 290 290 290 289 285 282 283 286 286 286 287 288 287 286 285 284 284 284 278 274 275 277 273 269 265 261 261 265 262 261 262 259 257 257 260 261 261 263 262 263 264 267 267 269 264 271 269 270 267 269 267 261 266 271 272 273 274 274 274 276 277 278 278 276 275 275 275 274 273 275 276
298 298 298 298 298 299 299 298 298 298 299 299 296 290 287 290 288 291 290 284 286 286 286 285 287 287 288 288 287 287 287 288 286 283 283 279 274 276 277 276 273 274 272 275 272 270 267 264 265 264 261 263 268 266 261 266 260 263 265 270 271 274 273 272 272 270 274 275 275 277 275 275 276 278 279 278 278 278 277 275 274 274 275 275 275 276 276
298 298 298 298 298 298 298 299 299 298 299 299 296 290 290 291 288 287 286 286 283 280 283 285 282 280 282 283 288 288 287 285 286 287 288 286 277 273 275 278 279 276 271 275 278 277 270 267 269 267 268 271 267 265 266 266 267 268 268 268 272 274 275 271 270 273 270 266 275 274 274 276 276 276 277 277 277 276 276 275 275 275 276 276 276 275 275
298 298 299 299 298 298 297 298 298 298 298 298 296 293 289 287 290 289 284 279 280 279 274 279 281 285 288 290 290 287 287 288 289 287 286 286 283 279 277 279 282 279 277 278 278 270 265 269 269 268 269 275 274 267 273 268 268 273 266 270 269 270 276 271 272 272 270 269 274 275 277 276 277 276 276 276 277 278 276 276 276 275 275 274 273 271 270
298 297 298 299 298 297 297 297 298 298 298 297 296 288 288 288 290 289 287 287 285 282 276 275 279 284 285 285 284 286 288 288 287 286 286 286 286 285 283 281 279 281 279 280 279 277 271 266 269 269 269 271 279 271 271 273 271 273 271 270 274 273 274 261 267 269 273 275 276 276 276 276 276 277 277 277 277 276 275 274 272 271 270 270 270 271 271
298 298 297 297 297 296 296 297 297 298 297 297 295 288 288 288 291 288 286 285 281 277 279 276 280 279 280 282 283 284 285 287 286 286 285 285 285 285 284 282 281 280 279 279 280 278 272 271 270 270 272 271 276 268 270 268 271 269 270 274 276 273 270 274 271 268 269 269 272 275 269 269 274 275 275 273 272 272 271 270 269 269 268 269 268 269 270
298 297 297 297 297 297 297 297 297 298 298 297 294 288 287 288 289 290 290 289 284 278 278 276 276 278 281 275 280 283 285 286 286 285 284 284 284 284 283 282 282 281 280 279 275 276 273 271 271 275 275 272 271 270 276 276 275 272 272 274 276 273 274 273 270 270 268 274 276 276 275 275 276 276 271 267 269 269 268 267 267 268 268 268 268 267 267
297 297 297 297 297 296 297 297 296 297 298 296 286 285 285 288 289 291 292 290 288 284 282 282 280 277 276 278 282 282 282 285 284 284 284 283 283 283 283 283 282 282 281 281 279 278 276 276 279 276 272 274 271 271 273 269 269 268 272 276 276 277 277 276 275 275 276 277 277 277 276 274 275 272 268 267 267 266 266 267 267 267 267 267 266 266 265
297 297 297 296 296 296 297 296 296 296 297 290 285 284 282 284 289 289 292 290 287 285 279 276 273 277 279 277 276 280 282 282 283 282 282 282 281 282 282 282 282 284 282 280 279 275 278 277 278 279 279 279 274 271 271 271 269 271 276 276 276 276 277 277 278 275 275 277 269 268 269 270 271 271 267 266 266 265 265 265 266 266 265 266 264 264 265
298 296 297 297 296 297 297 296 296 296 295 284 284 279 278 275 283 290 293 291 290 285 280 280 276 281 277 279 278 279 281 282 280 281 281 281 281 281 282 283 282 283 279 280 279 278 279 275 277 278 281 280 278 271 270 270 268 271 275 276 276 276 276 276 272 266 266 265 266 267 267 269 268 268 266 265 264 265 264 265 265 265 264 264 263 263 263
297 297 296 297 296 296 296 297 297 295 289 284 284 281 281 281 284 288 292 292 289 283 279 275 275 275 274 276 275 277 281 281 281 281 279 281 279 281 280 282 279 282 282 278 280 278 277 278 277 277 276 280 278 267 271 270 269 270 276 276 277 273 269 267 265 265 263 263 265 269 271 267 264 264 263 263 263 264 263 263 263 263 263 262 262 262 261
296 296 297 296 296 296 295 296 297 295 287 289 294 294 294 294 293 292 293 289 285 282 282 277 273 275 273 273 272 272 276 276 274 278 275 281 277 279 278 281 281 280 284 279 276 274 279 278 278 275 278 279 273 272 271 270 271 276 276 277 269 266 266 264 263 262 261 261 263 264 266 264 262 262 262 263 263 262 262 261 261 261 259 258 258 259 260
296 297 297 297 296 296 296 296 296 296 294 288 283 285 289 293 292 290 287 287 283 283 282 276 272 272 272 271 267 271 280 276 273 277 270 274 275 277 276 277 280 276 280 277 279 278 276 275 273 273 276 275 277 271 268 272 276 276 275 265 262 262 264 263 261 260 260 260 260 260 261 262 262 262 261 261 260 261 261 260 258 257 256 257 257 258 259
295 296 296 296 296 295 296 295 291 288 284 285 285 286 290 294 293 292 290 285 278 277 277 276 276 271 270 269 269 271 275 274 272 275 273 270 278 276 272 270 276 274 275 283 277 277 275 275 277 270 271 275 271 270 271 274 275 274 265 262 261 261 260 262 261 258 259 259 258 258 259 260 259 258 258 258 258 259 258 257 257 256 255 256 256 256 256
295 296 297 297 295 295 291 291 286 284 282 283 283 291 294 294 294 290 288 287 283 277 275 274 275 272 273 269 269 273 278 272 272 274 274 270 270 272 271 273 270 275 277 276 272 276 273 278 272 269 275 271 269 271 274 274 272 265 260 260 259 259 258 259 258 258 257 257 256 257 257 257 256 256 257 257 258 257 256 255 255 256 254 254 255 255 255
295 296 296 294 290 286 283 283 286 285 282 287 289 294 293 289 284 287 284 282 283 283 276 273 270 271 274 271 269 270 275 267 275 270 269 267 267 267 271 270 270 275 272 270 272 272 275 280 273 271 271 268 272 265 260 260 261 261 260 259 259 259 258 258 257 256 254 253 253 256 256 254 254 255 256 255 255 255 254 253 253 253 252 252 253 253 253
295 295 290 284 280 278 278 281 281 284 292 292 292 283 278 282 276 280 280 278 280 282 277 278 273 273 270 270 267 276 276 271 274 272 267 267 270 267 273 272 271 274 266 269 272 277 271 270 270 270 271 267 258 257 259 258 258 258 258 258 258 258 257 257 256 254 251 253 254 254 253 253 253 252 253 253 253 252 253 253 253 253 253 253 253 253 252
294 288 284 283 280 277 278 279 288 293 288 285 283 278 276 277 275 273 274 276 278 273 277 275 273 277 274 272 271 281 276 271 267 266 265 274 271 265 271 266 274 273 267 266 268 276 266 266 269 269 269 265 260 258 256 259 257 257 257 257 257 257 257 256 256 254 253 253 253 252 251 252 252 251 252 252 252 253 253 253 252 252 252 252 252 252 251
284 280 280 280 279 279 284 288 294 288 284 279 277 276 272 276 273 269 276 271 271 272 274 270 277 277 277 274 272 272 278 271 267 267 267 265 275 266 269 266 271 269 263 265 266 269 263 259 262 263 266 270 261 256 256 256 256 255 256 255 255 255 256 255 255 255 255 255 255 253 253 253 253 252 251 251 251 251 251 251 251 251 251 251 252 251 251
282 280 278 277 276 280 282 285 280 278 278 275 274 274 271 268 270 269 271 269 268 266 268 269 271 271 275 277 276 272 277 275 267 269 269 267 275 272 264 265 271 264 262 261 268 261 258 255 257 261 267 261 255 254 254 253 254 255 254 254 254 254 254 254 254 254 253 252 252 252 252 251 251 251 251 251 250 250 250 250 250 250 250 250 250 251 252
284 282 280 282 281 282 282 280 278 276 275 276 271 268 270 268 267 265 269 266 268 266 264 271 268 270 268 274 273 275 271 272 270 273 271 267 275 267 263 263 265 263 260 264 258 255 259 258 256 256 256 252 253 251 252 252 253 253 253 253 254 253 253 253 252 252 252 251 251 251 251 250 250 250 250 250 250 250 250 250 250 250 250 251 251 252 252
288 285 284 279 278 277 278 274 276 274 269 269 267 264 268 264 267 267 266 269 262 264 263 266 267 277 274 273 268 271 272 276 272 270 268 265 274 269 263 264 262 260 263 258 258 259 256 256 253 260 252 250 250 251 251 252 253 253 253 253 253 253 251 249 251 250 250 250 249 250 250 250 249 249 250 249 249 248 249 250 250 250 250 251 251 252 253
285 283 278 276 274 275 276 266 275 269 268 268 266 263 264 262 264 262 259 261 259 262 266 270 270 271 268 269 272 271 270 275 277 268 267 270 267 265 266 261 263 264 261 260 260 259 260 255 260 255 251 250 250 251 252 252 251 251 250 252 250 249 251 250 250 250 250 250 250 250 250 250 249 250 249 249 249 248 249 249 250 251 251 252 253 254 255
278 274 274 272 270 274 271 265 272 267 265 266 269 261 263 263 265 265 267 265 266 267 267 268 271 270 268 267 267 270 275 266 272 269 267 269 265 266 263 262 261 261 262 260 257 256 255 260 252 247 252 250 252 251 250 250 250 249 249 248 249 249 249 249 249 249 249 249 249 249 249 249 249 249 249 249 249 249 249 249 250 251 252 252 253 254 255
275 273 272 268 266 271 268 265 265 261 265 267 265 263 263 263 263 266 266 261 264 263 267 269 268 269 265 266 269 269 267 267 267 268 268 266 264 263 265 264 264 262 260 257 256 259 263 262 252 250 253 252 252 250 248 248 247 247 247 246 248 248 247 247 248 248 249 249 250 249 249 249 249 249 249 249 249 250 250 250 251 252 253 254 254 253 254
276 275 271 270 267 268 267 264 263 263 262 262 261 265 267 266 261 261 259 258 261 263 263 263 268 268 268 265 265 266 266 266 266 268 267 263 263 264 270 263 261 261 259 258 255 255 258 254 251 253 252 251 249 247 246 247 247 246 246 246 247 247 248 247 247 248 249 249 249 249 249 249 249 250 250 249 250 250 251 252 253 254 254 253 254 254 254
272 273 271 266 265 267 265 265 260 256 254 253 254 255 255 255 259 260 257 255 255 262 266 266 266 265 267 268 266 265 265 266 265 267 268 265 267 261 262 261 260 259 255 255 261 256 253 254 254 252 251 249 248 246 246 246 246 247 246 246 246 247 247 247 248 248 249 248 248 248 249 249 249 249 249 249 250 251 252 253 254 254 254 254 254 254 254
273 270 269 267 265 265 262 259 263 265 256 252 253 254 255 260 259 257 255 255 258 262 263 264 264 266 265 269 268 269 266 268 263 263 266 263 260 259 258 255 253 254 257 259 255 251 253 254 250 249 247 246 245 245 246 246 246 246 246 247 246 248 249 248 248 249 248 248 247 248 248 249 249 249 250 250 250 252 254 254 254 254 254 254 253 253 253
270 266 261 260 261 262 259 258 262 261 255 255 256 255 254 256 255 255 256 256 257 258 265 270 273 270 267 266 261 263 262 262 263 266 261 261 260 256 254 252 251 256 254 248 247 248 248 249 248 247 245 244 246 247 246 246 247 248 248 248 248 248 248 247 248 249 248 248 248 248 248 249 249 250 250 251 252 253 254 254 253 253 253 254 253 253 253
266 265 260 259 261 262 264 262 264 262 258 260 258 257 257 258 259 257 258 256 259 263 265 265 267 264 264 263 262 261 262 263 261 263 262 259 254 253 253 258 259 253 249 249 248 250 249 246 245 244 242 242 244 247 247 245 244 244 245 244 245 246 246 246 248 249 248 248 248 250 250 249 251 251 253 253 254 253 253 253 254 253 253 254 254 253 253
266 263 260 257 255 255 257 259 259 259 259 260 261 256 258 256 256 253 257 259 259 266 265 259 262 263 262 261 261 259 260 260 259 256 255 256 251 254 251 251 249 248 251 248 246 244 244 241 240 244 241 242 245 243 242 242 242 242 242 243 244 245 245 246 247 247 248 248 249 249 251 252 253 254 254 254 253 252 251 252 253 254 254 254 253 254 253
Wind_Speed
3 3 5 6 6 4 8 10 10 9 9 4 4 1 1 2 5 1 3 3 9 9 8 6 5 7 3 3 4 2 4 2 1 1 2 4 4 3 3 5 6 5 9 4 7 7 8 6 8 3 4 7 10 4 5 6 3 2 4 1 2 3 2 0 8 7 9 14 5 2 2 2 3 3 3 1 6 12 12 11 3 4 5 8 8 11 3
4 4 4 4 5 6 5 7 9 9 7 1 2 2 1 3 3 4 2 1 2 8 10 10 11 7 5 6 7 4 3 3 6 6 3 4 2 5 3 3 6 8 5 5 9 7 8 7 15 7 5 4 5 8 6 3 1 2 5 1 2 0 3 2 4 4 5 5 5 1 4 2 4 7 9 10 9 7 7 4 1 9 10 13 12 18 6
5 5 5 5 4 4 5 4 6 8 10 4 1 1 1 1 2 4 5 2 1 7 2 6 5 7 9 10 15 12 7 6 14 10 6 2 4 2 3 5 3 3 1 4 3 2 10 5 3 4 2 4 2 8 9 3 2 4 4 2 1 3 4 2 6 9 11 12 12 10 3 6 3 2 5 5 8 13 8 9 7 13 5 14 13 14 9
5 4 4 5 5 4 3 3 4 5 7 7 4 1 2 1 1 2 1 2 0 5 3 1 3 3 6 7 5 5 6 1 2 7 9 10 5 6 3 2 2 3 3 4 4 7 3 9 2 1 2 2 3 2 5 7 3 3 7 9 2 2 1 8 11 13 15 15 12 5 4 1 4 4 3 5 5 8 11 9 11 14 14 15 13 14 17
6 6 6 5 5 4 5 4 2 4 6 5 2 2 2 1 2 1 2 2 2 5 2 3 2 3 1 4 1 12 11 7 4 7 3 3 4 2 6 3 4 3 5 6 9 8 7 6 5 7 10 1 2 4 5 5 10 5 4 6 3 2 3 8 12 14 14 14 16 15 14 15 11 12 14 11 10 7 11 12 16 12 14 20 9 15 17
8 7 6 6 5 5 3 4 4 3 3 6 4 1 1 2 3 2 3 1 3 1 6 2 6 8 7 4 4 5 5 1 2 4 1 1 2 1 3 3 8 9 8 3 5 1 5 2 5 2 3 2 5 5 3 4 6 8 2 4 3 1 4 3 7 9 5 8 11 10 11 9 8 9 9 10 10 12 15 16 15 13 13 16 12 15 18
8 7 7 6 6 6 5 2 1 1 4 6 2 1 4 2 1 1 3 1 3 2 3 6 4 5 6 3 4 10 13 16 10 3 4 2 2 3 6 4 1 2 1 3 4 1 7 4 1 1 2 2 2 3 3 1 6 8 5 4 1 1 5 5 2 9 8 12 11 10 13 12 13 10 9 9 11 15 15 17 12 13 16 17 17 17 20
9 8 8 7 6 7 6 6 3 5 7 5 3 1 1 2 1 2 3 1 4 4 3 2 3 3 4 5 8 10 8 13 8 3 6 10 12 3 13 2 5 4 2 3 6 1 1 2 4 1 3 3 2 2 2 3 4 5 4 4 4 2 5 14 8 9 11 12 13 13 13 13 16 14 12 11 13 17 16 15 16 18 21 16 18 15 13
10 9 9 9 8 8 7 6 5 3 8 2 1 2 2 1 1 1 2 3 2 2 0 1 2 4 3 7 4 8 7 8 4 5 2 3 2 5 3 5 4 2 1 5 4 2 4 4 4 1 0 2 2 3 4 3 6 7 2 0 2 2 4 4 7 9 13 14 15 14 12 11 10 13 15 19 21 20 13 13 15 14 14 12 14 14 7
10 11 10 10 11 9 8 8 7 8 5 3 0 1 1 1 2 2 1 1 4 2 1 1 1 5 3 1 2 1 2 3 6 2 3 9 10 7 5 4 3 3 3 6 1 3 1 3 5 5 6 7 7 7 8 6 4 2 2 2 6 2 4 5 7 10 12 15 15 10 10 11 13 14 21 22 16 16 16 15 5 3 2 5 6 3 3
7 8 9 11 11 10 11 11 9 8 5 3 2 2 1 2 1 1 0 2 3 5 1 4 4 3 2 3 2 4 2 5 7 2 2 3 2 5 4 3 3 2 3 1 2 4 4 4 5 5 6 9 10 7 9 11 11 9 7 4 4 7 8 9 6 10 11 13 11 3 5 12 15 6 1 2 11 7 9 4 4 4 3 1 2 2 1
13 13 10 9 9 11 12 11 11 12 9 6 5 3 4 3 3 2 2 4 4 4 6 5 6 3 1 1 2 1 4 4 2 2 5 5 7 5 1 2 3 2 1 2 4 3 4 4 6 6 6 8 10 10 11 13 14 12 10 11 9 10 7 8 2 5 9 6 5 8 13 13 2 2 1 5 5 7 7 5 2 1 4 6 3 4 0
15 15 14 13 11 9 9 11 13 13 9 7 6 5 3 3 4 2 2 2 4 2 2 4 2 2 1 3 5 3 5 4 1 3 4 7 8 4 2 1 2 2 3 5 3 5 3 7 4 4 6 3 5 7 11 13 16 13 9 10 9 9 9 1 2 3 2 1 4 6 6 8 1 0 0 1 7 6 8 2 3 1 3 3 3 6 6
15 15 16 16 15 14 14 12 12 13 10 9 7 6 4 4 5 4 3 2 6 5 6 9 10 10 7 8 7 7 4 7 4 2 3 3 5 3 2 1 3 1 0 1 1 1 2 3 4 4 5 4 4 3 7 7 12 14 11 10 11 11 4 4 5 6 8 5 8 13 7 15 8 3 2 3 0 1 1 2 2 7 4 3 4 6 6
15 15 14 14 15 16 16 16 15 14 13 10 6 2 4 5 6 4 2 4 6 4 5 6 1 6 7 5 5 5 4 4 3 5 2 1 1 4 3 3 1 3 0 1 1 3 2 1 2 3 5 1 2 3 5 1 4 2 8 7 9 10 11 6 7 6 9 7 8 8 6 8 3 1 4 1 4 2 3 3 4 6 2 3 5 5 8
16 15 15 15 15 15 16 16 16 17 16 12 6 5 7 7 4 3 4 3 1 7 9 12 8 3 3 3 3 5 3 2 4 1 4 1 3 4 3 1 2 1 0 2 1 3 0 2 5 2 4 2 3 2 4 3 5 2 4 1 6 5 9 8 9 5 5 7 8 8 8 6 4 7 5 5 3 3 2 2 4 4 1 5 7 6 6
17 17 16 16 16 16 16 16 16 18 17 16 6 6 7 8 7 7 5 3 6 10 2 2 4 5 5 2 3 1 5 5 3 1 3 3 3 1 4 3 2 1 3 3 1 2 1 1 0 2 3 2 1 4 1 1 0 5 2 4 9 5 2 6 9 10 7 7 8 10 4 2 3 4 2 3 1 3 1 9 6 3 4 4 7 8 7
19 18 17 18 17 17 16 16 16 16 16 17 8 6 5 6 9 6 3 5 7 8 11 7 5 5 8 6 4 3 3 0 2 0 1 3 1 2 2 1 1 3 3 3 2 4 2 2 3 5 5 3 2 2 3 2 1 5 1 1 1 2 2 2 8 8 11 14 10 6 6 3 1 5 5 4 3 2 5 15 5 1 2 4 7 9 9
19 18 18 18 18 18 18 18 16 17 18 19 7 4 5 8 9 9 5 5 6 9 7 9 11 8 3 1 4 3 4 6 5 3 2 3 3 4 5 2 1 1 1 4 2 3 4 5 2 2 3 4 3 4 2 1 5 1 2 1 1 3 1 6 0 6 9 7 8 9 7 5 5 3 3 2 2 2 10 3 1 2 8 4 7 8 8
19 19 19 19 19 19 18 18 18 18 17 18 10 6 4 9 12 15 12 9 7 10 10 7 8 14 5 7 7 4 1 1 5 5 4 5 3 2 2 2 5 4 2 1 0 2 3 3 4 1 1 4 4 5 1 7 4 4 3 4 3 5 1 4 5 3 1 0 5 5 8 2 5 1 4 1 4 7 4 4 6 3 5 5 6 6 8
20 20 19 19 19 19 19 19 19 19 19 19 14 4 5 5 8 6 7 7 4 8 10 6 4 10 8 11 14 12 10 11 7 5 7 6 4 5 2 4 6 3 5 4 7 5 4 3 2 3 3 3 5 3 5 1 4 6 6 6 5 3 6 2 5 5 9 6 7 5 4 3 3 2 4 2 5 3 5 5 12 11 7 5 6 5 7
21 20 20 20 20 19 19 19 19 17 18 18 14 6 9 5 7 9 10 7 8 8 2 1 3 8 11 13 11 10 12 12 13 10 5 3 2 7 5 2 5 3 3 4 4 2 1 2 2 1 2 3 1 5 2 3 7 4 1 0 8 5 8 7 9 3 3 5 6 7 3 1 3 3 6 8 10 12 12 9 8 10 10 5 5 8 10
21 20 20 20 20 19 19 19 20 19 20 20 15 5 8 4 4 3 8 8 4 4 1 4 2 4 3 4 4 8 11 10 7 3 5 6 5 4 8 7 7 3 2 4 7 5 5 6 6 3 1 3 8 7 2 8 3 2 7 4 6 4 2 0 4 6 6 7 9 15 8 5 12 12 12 13 14 12 9 7 7 6 9 6 8 9 9
20 20 20 20 21 21 20 19 19 18 18 19 13 7 8 6 5 6 3 4 4 4 5 7 4 8 11 13 13 8 6 4 7 11 9 8 8 5 1 4 1 1 3 6 6 6 5 4 5 3 7 5 3 3 8 7 7 4 5 6 5 9 7 3 6 8 9 10 11 10 10 12 10 11 12 11 8 9 8 8 7 8 8 9 8 6 7
23 21 20 20 21 21 19 18 19 19 19 19 15 5 2 2 5 9 7 5 4 6 8 3 12 17 12 10 7 8 11 11 10 11 8 9 12 11 12 8 8 11 8 5 1 4 3 4 2 1 9 6 6 8 6 7 8 5 8 9 5 9 6 7 11 14 11 16 17 14 10 10 10 10 10 13 14 13 8 7 7 7 6 4 4 4 3
21 23 22 20 20 21 21 20 19 19 18 19 14 5 8 7 7 8 6 5 2 2 5 9 8 1 3 5 8 8 9 13 12 12 13 15 15 16 12 2 1 0 2 3 4 6 5 2 4 4 6 6 7 6 9 10 6 2 9 11 10 6 3 3 3 7 12 16 15 13 13 12 13 15 12 12 10 8 7 4 4 6 7 8 7 3 3
24 22 22 23 22 22 22 20 19 18 18 17 10 6 7 4 8 11 8 6 3 5 7 10 2 0 0 8 1 2 4 10 11 12 12 12 13 10 8 6 6 2 5 3 3 5 1 2 3 8 7 6 3 4 3 4 6 6 9 11 6 3 11 12 5 10 13 13 13 9 9 9 9 7 6 3 4 4 4 6 6 7 7 7 9 11 6
22 24 24 23 22 21 20 20 20 19 17 15 9 5 5 6 8 10 10 9 10 9 2 2 2 3 1 3 4 5 7 9 11 12 11 12 12 10 9 11 9 8 6 6 5 5 4 7 10 4 2 2 3 8 8 6 4 6 10 12 10 10 12 6 9 11 13 13 13 8 8 9 10 8 6 8 6 6 7 5 5 6 5 5 7 10 13
24 25 25 23 23 23 21 19 19 18 18 12 3 3 2 6 5 9 10 9 7 8 8 7 0 1 7 4 3 7 5 8 10 11 11 10 10 11 11 12 12 11 9 7 6 5 6 9 6 5 5 3 3 6 3 8 8 10 14 15 12 10 10 14 16 16 16 17 18 14 10 12 6 4 5 6 6 6 3 4 4 4 6 7 6 6 9
25 25 24 25 24 22 22 22 21 19 16 5 5 2 4 4 8 9 10 8 7 3 5 4 6 4 2 1 2 4 6 7 9 11 12 10 10 11 12 12 12 13 10 7 7 8 9 6 7 7 4 4 3 2 5 7 10 12 13 13 12 12 14 13 12 14 15 9 3 3 2 5 3 1 7 6 7 6 5 6 7 8 8 7 8 8 6
24 26 25 24 24 22 22 23 22 20 14 4 5 4 3 6 3 9 15 12 11 7 3 3 7 1 3 2 3 10 10 9 10 10 13 13 11 12 9 9 8 7 5 6 7 9 5 5 6 5 7 11 9 3 7 7 10 11 15 12 13 12 10 9 1 5 4 6 7 3 3 1 2 3 3 7 8 7 5 5 7 7 10 10 9 8 9
25 25 26 26 26 25 25 24 21 19 7 9 9 7 4 3 2 7 14 9 8 4 4 4 5 3 3 2 2 2 9 11 7 4 2 4 6 6 5 9 7 9 9 9 9 3 6 8 7 8 8 10 8 1 3 8 12 15 15 13 12 4 1 3 4 3 6 6 7 8 6 3 7 6 5 8 8 7 7 8 8 9 10 9 9 9 9
25 26 26 25 25 25 24 24 24 16 6 8 9 6 7 9 7 8 11 8 5 3 2 3 5 1 2 4 1 2 2 2 1 4 4 4 5 5 5 6 6 5 9 7 5 5 3 7 8 10 11 4 3 3 6 12 14 14 15 11 1 3 2 6 6 5 5 6 6 2 6 3 4 5 5 6 6 7 8 8 8 9 9 10 11 10 9
26 25 25 24 25 25 23 21 21 19 11 4 4 9 8 8 7 12 5 3 2 1 2 3 3 5 4 1 1 2 5 6 5 7 4 1 3 5 5 4 6 4 6 10 5 4 2 2 7 5 2 6 7 4 10 13 12 17 12 3 3 2 2 4 3 4 4 4 2 2 5 6 5 5 4 4 5 4 5 5 8 12 13 9 8 8 11
25 25 24 24 23 23 20 17 10 7 6 4 3 1 6 15 14 16 14 7 4 3 2 3 2 4 3 0 4 4 3 4 3 7 8 3 1 6 2 2 4 6 5 6 4 7 7 7 3 2 11 1 3 9 9 13 16 11 2 3 2 2 2 3 2 4 4 5 5 4 5 3 5 6 5 7 6 6 7 6 7 9 12 14 11 9 8
24 24 22 22 22 18 8 8 5 6 4 5 4 6 14 14 14 11 13 11 6 4 4 3 4 8 6 8 6 2 4 3 1 2 2 2 2 0 2 2 4 5 1 4 6 6 8 4 5 8 6 7 10 9 13 10 11 3 2 2 3 4 2 1 2 5 5 6 6 5 1 3 4 7 5 6 6 5 7 10 8 7 9 12 14 12 11
24 22 21 19 7 2 6 5 3 5 4 4 6 9 7 6 5 2 2 1 3 1 4 2 3 6 8 5 0 3 6 6 4 3 2 3 5 0 2 2 7 2 3 3 5 7 7 6 4 7 6 11 13 0 5 5 3 2 3 3 3 2 3 1 4 4 6 7 3 1 3 5 5 3 6 6 5 5 8 9 8 10 13 15 14 14 13
23 19 9 4 4 4 2 4 4 6 11 14 14 6 2 2 2 1 1 4 2 4 4 4 9 3 3 3 3 2 5 4 2 6 2 2 3 2 2 3 5 4 7 5 6 3 1 3 5 9 14 3 4 2 2 5 4 4 4 3 2 2 2 2 2 4 5 4 1 5 8 6 5 3 7 8 5 9 8 7 7 7 8 10 12 13 14
16 7 4 4 5 5 6 4 7 17 10 3 3 2 1 2 3 2 3 2 2 5 3 6 9 7 7 7 3 2 5 5 3 0 3 3 4 4 2 2 2 3 4 1 5 8 3 2 4 5 12 4 4 3 3 5 5 4 4 2 3 1 2 1 3 2 1 1 3 1 3 6 11 12 4 9 9 6 6 8 8 7 8 11 11 12 12
5 6 6 5 7 4 2 9 21 13 4 4 0 3 2 2 4 3 2 2 2 2 2 7 5 7 10 12 7 7 3 6 8 9 6 1 1 4 1 2 2 3 4 5 4 4 4 3 2 2 9 7 6 4 4 3 4 3 3 3 1 2 2 1 2 3 3 5 5 6 4 6 7 9 11 10 11 13 10 7 7 9 9 10 12 13 13
4 4 3 6 3 4 5 8 4 4 4 3 2 1 2 1 2 1 2 4 3 3 1 2 2 2 4 6 7 10 1 3 1 3 3 3 1 5 2 2 0 3 2 1 1 4 2 1 2 5 9 2 5 5 3 2 3 3 2 0 2 2 1 3 3 3 3 4 5 5 5 5 7 8 9 10 11 11 11 11 11 10 11 12 13 13 12
6 6 4 6 5 5 4 3 2 3 1 2 3 4 4 1 1 0 2 5 5 2 3 3 2 5 5 8 8 3 2 1 2 1 2 2 3 5 3 0 1 3 3 3 2 2 2 2 2 5 6 3 3 3 3 2 2 1 0 0 2 1 2 3 4 4 3 5 5 6 6 6 8 9 9 9 10 10 11 12 12 12 12 12 11 12 12
19 12 7 6 3 1 1 2 2 3 4 3 3 2 3 3 3 5 3 1 1 2 3 2 1 1 2 2 1 0 2 2 2 1 2 4 1 3 2 0 2 1 3 1 2 1 2 4 4 9 1 4 4 4 3 3 2 1 1 1 1 2 2 3 4 4 5 5 7 7 8 8 9 9 8 9 11 13 12 11 12 12 12 12 11 11 12
5 3 4 1 4 2 3 5 2 4 2 2 5 6 3 3 2 2 1 4 2 2 5 7 6 8 6 1 4 2 1 0 3 2 1 1 2 2 2 2 4 3 3 0 2 3 5 3 8 3 4 2 2 3 3 1 0 0 1 1 1 2 3 2 3 5 5 5 6 7 7 9 9 9 7 8 9 12 12 11 12 11 12 11 11 12 10
5 2 2 2 2 2 4 3 2 3 6 5 5 4 5 9 8 8 11 4 5 7 5 4 5 7 5 3 2 1 1 2 2 4 2 3 1 1 3 4 0 1 2 3 1 2 2 6 2 2 4 4 4 3 3 1 1 1 2 2 3 2 3 3 5 4 6 6 7 7 7 8 8 9 8 9 9 8 9 12 11 10 10 10 10 9 8
4 5 5 4 3 3 3 2 2 1 2 3 5 7 8 7 7 7 3 2 5 2 7 8 5 5 4 1 5 4 1 3 2 2 2 1 3 3 2 1 2 1 1 1 2 7 9 8 4 6 5 5 4 3 2 2 1 0 2 3 4 4 4 4 5 5 7 7 7 7 8 8 8 9 9 9 9 9 9 10 9 10 10 9 8 9 9
2 1 1 1 1 2 2 4 5 5 4 4 6 8 8 7 4 2 2 1 2 1 2 1 4 3 6 2 2 2 1 1 2 1 3 1 3 1 1 3 2 2 3 3 4 5 7 5 4 4 6 5 3 2 1 1 1 0 1 2 3 5 5 5 6 7 7 7 8 8 8 8 8 8 8 8 8 8 9 9 8 6 6 8 8 8 9
3 1 2 2 3 3 6 4 2 3 2 1 2 1 1 2 5 3 1 1 1 1 7 4 4 2 3 1 3 3 3 1 2 3 3 2 2 2 1 1 2 2 3 5 8 6 4 2 7 7 5 4 4 2 1 1 1 1 2 3 5 5 5 6 7 8 7 7 8 8 8 8 7 7 7 9 9 9 7 5 6 6 6 6 7 8 8
2 2 4 3 1 1 1 1 7 8 2 2 0 2 5 6 6 2 2 0 3 4 1 4 3 4 2 2 3 3 2 2 3 2 2 0 2 3 3 3 1 3 6 8 6 4 5 5 4 7 5 3 2 2 1 1 1 3 3 4 5 6 5 7 8 8 7 7 7 7 8 8 7 7 7 7 6 6 5 6 6 5 5 6 7 7 7
4 2 3 4 4 2 1 1 1 3 1 1 0 3 2 3 3 2 2 3 1 3 2 1 1 2 2 3 0 0 1 1 2 0 2 3 3 1 3 2 5 8 5 1 2 2 3 5 6 5 4 3 1 2 1 3 3 3 3 4 5 5 6 6 8 8 7 7 7 8 9 7 6 6 6 6 5 5 6 6 5 4 6 6 6 6 7
3 3 1 2 2 5 7 5 9 6 5 8 7 7 5 6 5 5 0 3 5 4 2 4 3 2 2 1 2 1 2 2 2 3 4 4 2 4 4 8 8 5 2 1 1 3 6 5 6 6 4 3 3 3 3 3 3 4 4 4 6 6 6 6 7 7 6 7 7 7 7 6 6 5 5 4 5 6 6 5 4 5 6 6 5 5 5
2 3 2 0 2 3 1 1 3 2 2 1 5 2 3 4 2 2 0 3 5 9 8 2 4 2 2 4 3 1 1 2 0 2 1 5 3 4 5 5 2 3 6 6 4 2 4 3 4 5 4 3 2 3 2 2 3 5 5 6 6 6 7 5 5 5 6 6 7 7 6 6 6 4 5 5 5 5 5 5 5 5 6 4 5 6 5
Wind_Direction
313 314 329 328 324 3 29 12 5 20 9 50 309 356 56 218 226 320 255 237 171 163 221 211 213 219 249 357 280 251 284 225 195 274 192 228 195 256 233 218 237 230 242 219 243 200 252 179 235 200 233 237 217 209 94 124 111 104 275 304 269 101 92 228 253 267 284 279 249 180 191 97 349 290 231 193 207 205 224 234 245 263 259 259 256 245 269
317 320 319 321 313 323 349 11 22 16 39 109 316 62 225 327 314 320 317 238 10 199 203 212 219 232 260 254 263 238 240 248 268 236 214 192 217 224 226 305 226 256 207 225 238 168 266 195 234 243 220 252 328 31 45 10 308 160 259 126 278 123 260 192 299 284 286 281 318 85 23 45 222 237 235 226 249 272 267 292 57 265 232 248 254 260 250
298 313 316 319 332 333 344 359 3 10 17 28 85 113 302 320 275 230 299 360 257 236 246 253 232 217 232 230 240 243 246 208 238 250 246 227 223 319 276 254 18 311 3 298 317 281 235 293 257 220 233 224 15 20 43 22 124 23 343 331 348 234 218 184 244 252 269 271 264 263 235 216 205 264 253 234 216 238 261 264 245 255 217 227 244 264 262
281 282 282 291 311 316 307 327 340 2 8 39 66 240 44 326 20 286 33 300 31 272 290 339 288 313 282 277 257 258 251 283 268 196 256 227 240 233 267 275 181 215 254 263 252 258 205 222 262 244 315 302 15 343 21 57 46 9 43 14 337 215 320 233 233 240 252 260 270 297 324 288 251 264 223 264 250 230 230 252 257 250 265 253 252 265 281
277 275 279 293 292 311 326 322 339 28 25 67 105 18 118 303 133 239 309 316 238 258 17 328 286 210 359 242 205 243 257 266 275 175 266 225 225 268 222 211 230 250 222 227 251 232 254 251 264 255 259 279 244 311 99 55 30 11 60 339 90 10 279 251 258 255 263 275 281 295 295 288 286 280 275 274 265 255 243 237 250 255 269 262 258 265 267
263 270 284 282 281 271 289 311 2 93 89 78 69 43 313 75 258 58 250 216 245 213 263 10 284 289 301 272 337 293 302 297 270 339 275 337 30 198 329 256 214 246 246 279 258 177 256 231 262 20 52 1 329 358 349 74 9 37 18 345 74 109 252 277 277 280 314 324 315 313 307 295 298 289 291 282 282 278 270 262 265 275 258 275 293 300 299
262 262 268 271 275 276 271 270 302 165 133 103 99 90 281 123 291 251 302 115 265 360 322 342 328 313 280 300 288 275 265 267 259 266 319 20 302 211 279 257 269 220 351 241 247 248 281 275 73 100 341 1 321 354 350 90 50 24 11 17 161 284 240 246 338 315 313 296 295 302 298 300 294 293 287 285 283 274 267 270 276 280 278 280 281 278 273
265 270 264 266 270 277 274 265 233 125 104 79 77 187 116 292 133 297 15 191 311 317 345 349 335 299 274 260 226 254 263 274 295 274 255 263 267 171 249 324 26 341 357 229 206 185 277 273 252 93 100 323 91 236 260 297 356 11 357 333 287 247 293 350 337 321 306 293 286 281 282 290 288 290 290 278 268 267 267 280 278 272 269 270 270 267 270
259 258 254 256 259 252 254 260 251 173 125 36 134 275 146 243 74 324 15 334 234 110 21 265 270 289 216 236 260 248 252 264 43 279 352 284 242 31 50 359 356 345 354 356 337 2 115 88 113 258 49 181 309 58 280 53 328 318 323 31 327 360 282 331 310 313 294 288 286 292 293 289 287 287 285 275 267 272 277 267 263 268 281 291 289 274 264
262 246 243 248 253 251 247 247 235 236 156 109 112 151 265 65 300 93 131 251 269 126 275 43 296 245 259 266 315 66 46 71 329 339 82 67 85 94 59 353 0 319 316 311 306 92 312 207 217 183 209 212 232 210 219 248 243 294 237 220 278 236 283 286 290 279 259 276 283 303 317 318 287 256 249 258 272 259 262 263 35 72 192 271 254 262 67
284 295 274 248 241 244 243 238 236 233 128 152 125 227 112 145 176 48 237 186 269 140 180 252 197 244 104 354 42 354 84 14 357 300 269 87 222 65 32 7 343 259 272 316 115 242 239 240 252 233 230 226 238 226 229 236 226 215 234 258 223 249 238 252 233 249 275 276 289 10 316 267 256 278 46 180 247 270 278 289 60 23 88 161 78 164 46
263 258 261 277 268 247 238 240 233 221 175 189 147 176 200 124 80 80 128 230 271 128 177 222 185 265 29 282 99 258 315 320 264 319 256 288 291 343 266 209 215 319 122 354 314 320 271 257 254 271 247 249 245 245 235 237 239 224 215 222 242 240 231 247 176 250 263 288 359 312 258 257 266 330 305 79 95 94 111 115 84 297 93 106 107 197 24
253 252 255 254 261 270 271 256 234 234 191 154 141 197 219 158 126 160 139 206 248 191 213 249 216 214 232 350 308 247 229 249 241 251 256 265 290 296 239 218 150 246 39 347 339 320 306 281 295 255 272 304 299 278 264 252 251 243 226 220 222 233 234 185 251 217 319 217 211 247 257 107 297 183 72 23 81 120 82 42 182 253 237 186 168 230 198
251 251 249 249 249 248 248 249 254 253 223 150 171 188 155 144 153 175 167 196 259 234 233 268 259 257 257 256 247 265 291 286 270 203 255 241 213 246 290 181 215 94 149 119 352 312 354 18 353 8 305 9 352 330 258 252 249 248 242 219 211 226 219 192 265 221 235 226 202 242 320 310 269 230 332 108 196 110 111 219 256 172 245 203 203 228 216
249 247 246 246 247 249 247 246 245 244 248 199 168 167 157 169 156 154 190 223 252 263 200 232 168 192 218 231 222 238 239 256 297 276 216 293 138 227 187 254 310 328 251 94 324 41 158 93 7 298 325 1 279 259 326 327 305 236 248 229 202 205 207 209 232 250 228 246 267 269 256 255 303 219 258 324 215 176 264 130 273 148 298 247 192 220 231
253 250 248 246 245 244 242 241 239 240 241 229 175 188 188 184 161 130 171 173 233 261 238 221 223 175 162 202 183 176 221 204 224 214 328 283 248 301 287 287 312 137 75 79 56 86 61 132 238 126 234 208 242 60 296 3 335 301 23 26 167 207 207 212 229 262 273 271 266 271 268 254 138 221 206 243 170 201 223 101 264 164 177 262 183 221 244
253 251 251 249 248 245 244 243 241 241 240 231 191 193 207 178 163 174 171 199 204 228 51 111 186 194 216 236 190 240 215 223 212 255 280 275 236 225 297 323 306 142 192 69 275 102 34 50 136 169 287 170 32 221 300 36 286 331 326 32 48 95 227 207 236 235 241 262 261 259 238 236 261 201 252 219 131 151 96 299 301 122 281 249 193 214 235
252 249 250 249 247 248 246 243 241 242 240 238 209 179 205 185 180 139 188 184 222 248 231 169 129 169 193 182 189 199 83 48 39 146 187 243 12 301 288 1 300 291 149 104 217 89 211 164 178 239 233 259 160 21 249 213 153 226 277 9 356 329 326 171 209 234 244 248 261 275 284 292 196 205 233 259 213 140 283 259 282 304 300 217 195 214 231
252 254 253 251 252 250 249 246 244 244 242 237 209 170 223 186 185 187 175 200 215 243 216 182 203 212 203 113 187 173 183 178 170 138 275 2 256 207 165 241 136 278 17 163 47 164 191 226 82 151 196 272 116 210 235 59 237 28 128 1 296 274 154 304 155 220 233 229 245 245 260 237 224 249 186 248 45 285 247 247 164 293 303 263 186 219 233
252 253 251 250 248 248 248 248 245 246 245 244 229 202 204 185 191 185 187 210 214 237 238 202 192 214 199 188 207 182 231 62 195 156 164 200 260 68 14 328 319 91 340 91 351 223 108 219 193 115 287 232 249 178 18 232 228 200 229 196 213 221 195 230 229 232 49 322 250 270 260 325 100 223 344 172 165 230 232 288 300 245 262 258 251 229 250
250 250 251 250 250 249 250 249 247 245 245 244 237 206 246 196 195 215 216 213 219 244 255 209 172 220 193 210 209 204 188 200 179 194 215 206 195 101 181 208 216 132 209 150 178 225 158 242 250 188 224 160 250 69 203 195 331 278 214 246 249 214 267 246 255 193 251 223 230 219 216 202 226 116 216 236 221 234 289 306 300 301 272 246 255 251 250
249 249 250 250 249 248 248 248 246 246 247 245 234 211 240 194 176 190 202 203 219 229 240 267 220 224 215 213 210 202 202 209 205 187 182 214 237 189 208 157 191 147 206 120 59 3 324 201 34 62 268 266 16 222 203 273 256 258 29 153 301 210 201 218 252 259 213 203 233 254 247 136 237 197 237 246 270 283 285 284 273 288 287 242 246 268 281
250 249 250 251 250 246 244 246 246 244 244 244 237 183 224 180 195 172 156 206 235 292 302 252 249 261 277 254 232 205 215 218 205 179 175 195 251 226 209 216 238 190 173 176 185 177 192 137 222 168 336 203 225 262 261 184 250 224 250 226 239 314 274 170 343 257 268 254 256 271 282 286 285 278 280 281 282 287 289 288 286 243 246 256 269 281 284
249 249 247 246 248 246 243 243 243 245 245 244 236 175 224 192 163 112 159 227 207 255 256 225 220 235 221 227 221 214 217 212 198 211 204 189 222 257 296 236 159 195 219 207 173 200 209 144 213 160 233 228 104 207 248 252 221 230 260 269 251 247 257 248 231 269 276 268 251 256 263 265 270 271 273 277 270 269 282 282 253 262 269 279 281 288 288
245 244 243 244 245 246 246 243 243 242 243 245 242 195 150 125 164 162 151 204 210 197 238 226 218 231 226 219 208 197 210 206 210 208 198 200 211 219 227 203 183 200 217 189 128 75 58 195 253 179 236 232 173 249 211 242 263 162 240 246 275 276 211 214 236 251 242 261 265 264 257 252 256 265 275 280 283 282 270 249 266 282 294 313 321 355 333
245 245 242 239 243 243 242 241 241 241 241 242 238 171 198 203 171 176 182 226 227 182 232 243 268 21 196 170 206 204 188 199 204 203 204 207 212 219 230 82 303 345 135 140 130 190 182 171 200 204 213 257 176 233 237 215 248 188 232 244 218 243 64 213 184 235 254 260 265 271 271 271 269 267 263 260 269 284 292 322 2 9 3 351 339 4 346
242 241 242 241 240 241 241 241 240 240 242 242 237 179 192 195 168 175 184 180 201 273 214 248 239 295 226 213 229 112 163 193 203 207 217 218 220 223 225 224 214 165 153 191 207 198 188 210 153 234 198 237 199 218 231 272 218 236 248 255 254 258 251 255 257 266 262 263 271 271 286 282 277 265 277 6 357 359 5 17 18 13 1 350 338 325 330
242 244 242 240 240 240 241 239 237 237 238 242 242 169 179 188 197 193 196 188 195 240 305 289 282 266 58 290 250 203 194 190 195 206 215 220 216 215 219 222 219 224 216 188 216 188 184 204 234 222 222 238 235 250 237 268 290 263 245 250 233 231 245 243 243 250 263 265 265 265 259 274 263 292 50 80 23 34 30 20 356 337 343 336 335 326 324
241 241 241 239 240 238 238 239 238 237 235 230 118 87 282 231 214 201 202 203 207 235 251 262 293 109 255 252 158 196 218 183 192 200 210 215 209 210 213 216 216 223 227 219 220 211 205 225 218 205 208 199 135 250 224 234 229 238 241 242 240 240 243 243 248 256 267 272 274 281 271 266 295 37 90 67 43 36 30 350 336 321 333 333 324 317 314
241 239 241 241 238 234 233 233 233 232 229 187 105 153 229 252 192 197 195 188 185 210 243 236 234 253 8 77 235 203 194 196 202 200 207 207 208 206 209 209 219 220 213 210 203 227 222 231 222 226 226 135 192 225 224 238 245 247 252 249 245 246 242 244 244 245 257 277 0 351 291 293 317 42 98 80 47 27 5 336 337 332 327 332 319 312 309
239 241 237 236 238 237 235 235 237 231 222 122 130 187 205 255 189 185 191 193 181 183 225 226 251 26 304 241 169 198 194 195 196 203 209 209 208 205 206 203 225 206 213 211 217 228 212 218 215 218 205 203 215 195 238 244 253 256 251 245 247 248 249 253 282 49 26 351 316 278 238 309 29 110 105 49 8 9 346 330 336 331 325 324 319 321 312
241 240 239 236 233 230 229 232 229 229 193 152 184 187 186 194 194 184 190 178 148 155 186 237 249 215 245 256 231 229 189 197 191 172 209 157 222 190 206 192 209 191 207 219 221 232 217 233 233 231 220 212 205 234 211 233 246 249 256 253 253 258 77 83 76 39 38 358 343 328 280 127 44 67 297 350 336 340 341 330 329 327 327 317 310 307 296
242 238 236 235 236 236 232 230 227 219 186 214 229 217 109 103 106 144 176 134 145 194 180 200 220 231 228 237 339 293 178 101 117 142 248 164 203 146 216 195 210 208 206 225 196 228 193 211 220 239 237 180 204 222 236 238 242 251 258 267 305 63 75 83 85 73 39 17 24 182 270 343 337 13 335 322 330 337 335 330 334 329 321 316 313 317 317
241 237 235 229 229 228 231 233 234 231 208 132 219 223 203 188 141 123 119 96 142 223 172 197 206 214 239 17 47 266 150 166 206 168 243 228 166 152 201 150 187 198 194 207 210 218 229 105 200 242 67 211 208 223 241 244 248 256 259 86 72 3 126 115 77 58 21 357 29 269 274 293 316 310 307 316 322 323 329 340 346 332 321 316 313 323 319
241 237 235 230 226 229 226 226 227 213 200 212 249 259 177 204 204 160 161 160 169 217 188 246 172 237 239 326 212 259 159 105 186 194 196 256 155 181 152 138 199 195 221 158 233 219 228 216 126 134 233 164 179 231 241 252 253 250 102 147 51 55 62 147 145 55 337 327 319 309 290 307 332 329 326 329 325 336 344 341 339 330 317 314 315 321 324
240 234 230 230 227 222 219 219 171 172 185 199 205 174 181 200 204 186 182 181 183 198 205 221 182 223 209 239 228 243 113 238 187 96 189 146 3 19 121 147 224 217 90 167 226 195 220 156 115 231 217 220 226 224 242 244 252 217 112 105 49 65 68 36 347 338 319 295 289 287 297 354 332 308 311 299 320 335 345 327 325 318 301 297 307 315 318
234 227 222 221 210 124 202 198 160 178 205 147 155 140 149 114 25 81 44 345 307 134 210 175 209 224 197 228 62 247 133 209 159 151 167 156 197 260 122 170 213 177 158 227 208 212 229 127 196 240 222 230 241 313 34 46 44 87 110 85 69 45 64 20 33 343 320 314 310 139 359 327 311 301 303 312 318 337 331 323 323 324 318 315 313 315 312
231 222 202 142 105 178 170 206 189 178 144 136 125 78 1 55 143 138 203 221 214 143 244 191 242 227 47 120 249 184 141 236 97 180 238 220 140 234 193 193 215 179 219 210 227 141 63 154 212 217 243 233 41 114 87 85 88 85 82 82 59 42 29 9 14 10 10 2 347 327 330 315 293 313 323 314 326 316 308 300 306 301 294 296 298 302 306
210 196 165 168 163 201 188 202 166 138 118 57 62 94 150 139 124 213 205 178 182 215 182 186 231 198 192 206 245 164 177 175 193 334 178 218 137 275 127 164 215 138 253 131 261 114 222 225 221 222 246 204 217 171 152 112 105 101 93 77 84 19 24 347 43 44 298 230 271 261 262 293 307 306 295 295 296 280 285 300 298 295 294 293 295 297 296
113 175 173 152 197 189 115 146 137 123 109 133 204 118 184 169 162 221 132 173 230 240 156 236 204 206 200 215 194 228 144 144 181 212 185 307 181 162 239 75 256 112 222 178 240 80 150 228 243 166 249 216 216 123 130 144 115 99 82 53 11 7 346 352 330 319 291 289 296 285 290 280 287 287 299 299 303 304 304 292 288 292 293 291 293 297 297
165 105 132 188 172 142 158 127 75 58 111 115 122 204 119 223 195 187 142 210 200 242 172 198 110 183 211 196 209 227 157 85 348 110 131 193 202 84 93 176 171 82 227 211 250 91 86 88 253 200 237 189 139 152 137 106 160 106 73 255 49 314 357 310 299 301 317 298 293 288 284 279 275 279 281 283 289 289 291 297 299 297 295 297 297 293 293
184 156 142 97 100 98 103 56 109 107 93 165 138 194 168 203 55 11 178 180 210 189 280 149 228 180 220 185 201 165 252 159 148 147 128 215 217 143 212 250 352 167 223 208 107 65 102 219 220 260 247 164 142 126 142 122 141 151 283 81 300 338 288 300 312 297 285 281 281 285 281 278 275 274 277 282 281 284 290 294 293 292 289 286 287 290 292
108 111 101 102 82 102 99 131 214 127 156 162 123 223 163 152 191 163 214 215 320 122 253 40 225 79 309 60 336 175 182 153 139 191 99 197 84 68 121 203 107 267 222 19 74 87 173 225 223 245 143 159 149 163 161 165 124 206 272 316 284 284 338 306 289 293 289 281 278 278 279 278 273 269 273 274 280 281 281 279 282 284 285 286 287 286 287
99 78 68 117 109 228 132 201 165 72 191 166 150 189 145 167 214 106 170 238 199 241 204 154 198 146 219 234 154 150 33 205 152 83 344 306 87 178 152 205 210 240 63 48 132 193 223 234 219 225 167 153 162 197 173 176 139 344 305 257 342 296 282 301 303 292 293 282 277 272 275 275 279 281 278 274 272 274 278 280 277 276 278 282 284 286 292
121 63 82 76 154 194 100 231 86 140 190 194 172 192 168 193 193 184 201 211 147 209 187 174 151 181 181 222 40 292 160 198 334 120 218 123 108 185 133 242 209 28 158 216 191 296 13 261 242 82 182 200 196 182 152 161 185 239 257 297 297 334 320 304 296 290 282 284 279 283 281 280 281 279 275 272 268 263 268 275 279 283 284 284 285 298 314
147 162 140 143 190 195 152 186 115 200 270 167 198 186 175 201 160 202 215 67 160 170 158 190 172 137 136 234 147 192 107 120 103 199 141 78 117 236 205 25 92 171 293 62 192 214 219 232 185 197 177 184 161 169 148 207 241 269 50 328 314 319 307 289 275 278 280 283 285 278 276 277 276 279 278 272 271 272 270 269 273 276 282 294 311 316 314
117 101 117 118 145 221 86 171 208 201 176 186 191 179 178 174 173 138 136 126 167 229 88 31 120 169 150 207 87 347 45 57 139 211 86 96 190 234 81 115 222 186 186 226 233 242 251 245 197 174 165 161 164 182 197 247 257 209 252 265 287 280 281 282 280 281 281 280 278 279 278 277 275 274 277 283 281 274 274 274 276 288 309 310 309 308 306
149 142 96 136 192 148 175 214 141 80 16 105 208 106 161 128 114 226 243 149 255 110 141 125 99 64 35 294 78 174 175 199 87 262 153 199 54 54 164 138 218 233 193 174 223 213 220 182 165 166 166 146 164 171 233 263 289 278 274 271 268 278 283 285 288 283 280 279 278 279 279 280 278 280 280 280 283 285 280 290 313 310 301 305 307 304 303
85 120 160 167 136 108 351 45 139 162 195 343 358 112 124 134 202 183 171 125 129 162 177 113 175 106 185 143 149 174 223 207 142 216 89 86 149 206 166 223 186 271 245 196 215 198 192 150 133 137 140 153 163 159 210 223 250 265 260 258 274 276 286 281 278 278 277 275 276 276 278 279 280 281 281 285 290 296 313 313 308 307 306 305 306 305 304
100 67 30 79 88 18 189 109 15 240 358 335 94 185 198 133 133 216 193 123 192 122 201 201 229 119 181 121 187 39 240 237 169 98 92 205 196 203 77 244 225 200 243 254 219 219 150 132 120 127 155 167 178 167 215 246 235 238 257 266 277 277 272 271 279 279 278 274 277 278 278 284 284 284 288 297 304 310 310 312 311 305 304 301 299 300 305
1 77 144 346 133 186 137 160 183 212 220 218 198 204 174 180 168 174 153 134 143 107 104 153 172 128 142 69 127 150 227 116 97 187 168 207 172 138 192 218 231 208 217 249 225 142 149 148 137 152 169 200 213 205 214 230 242 254 269 274 272 272 274 273 269 275 282 285 283 288 291 289 282 280 285 302 308 315 313 311 307 301 305 305 297 302 312
105 108 180 342 34 18 42 81 55 141 202 182 149 227 133 169 160 172 245 116 148 167 186 166 111 134 117 184 204 185 45 47 151 50 342 263 150 153 218 199 236 216 170 155 167 159 143 176 168 161 175 174 200 220 229 238 259 278 272 267 267 273 276 278 277 281 281 292 294 291 291 296 305 312 313 312 316 321 322 318 317 315 314 306 301 308 322